Location: La Savane
(18.0962°N, 63.0646°W)
Time: 17:59:03
(UTC+00:00)

Hubble Space Telescope - Pass Details

Date: 29 October 2020
Orbit: 536 x 539 km, 28.5° (Epoch: 23 November)

Event Time Altitude Azimuth Distance (km) Brightness Sun altitude
Rises 22:05:33 0° 283° (WNW) 2,664 5.7 -6.5°
Reaches altitude 10° 22:07:57 10° 274° (W) 1,774 4.9 -7.0°
Maximum altitude 22:11:42 34° 208° (SSW) 877 2.3 -7.9°
Drops below altitude 10° 22:15:27 10° 142° (SE) 1,774 3.2 -8.8°
Sets 22:17:50 0° 133° (SE) 2,663 4.0 -9.3°
